Zurück zum Katalog

STARLINK-32389

AktivKommunikationVLEO
NORAD 61549·PAYLOAD·🇺🇸 United States

Gestartet Oct 15, 2024 von Vandenberg Space Force Base

Loading…

Nächste Überflüge (nächste 24 Stunden)

TLE

AktuellSource: CelesTrak SupGP

Epoche: Sep 15, 2026, 03:10 UTC

1 61549C 24184T   26258.13243056 -.00124270  00000+0 -36707-2 0  2581
2 61549  53.1591 212.5182 0001361  85.6472 232.2644 15.34459402    16

Verfolge STARLINK-32389 in Echtzeit mit AllMySat

Download on the App Store